Roseburg, OR

7:53 PM PST on November 19, 2019 (GMT -0800)
Roseburg Regional

Weather History for KRBG - September, 2019

Change the Weather History Date:

Thursday, September 5, 2019

  Actual Average Record
Temperature  
Mean Temperature 79 °F 67 °F  
Max Temperature 94 °F 82 °F 104 °F (1944)
Min Temperature 63 °F 53 °F 41 °F (1954)
Degree Days  
Heating Degree Days 0 1  
Month to date heating degree days 0 5  
Since 1 July heating degree days 5 26  
Cooling Degree Days 14 4  
Month to date cooling degree days 46 20  
Year to date cooling degree days 649 431  
Growing Degree Days 28 (Base 50)    
Moisture  
Dew Point 56 °F    
Average Humidity 52    
Maximum Humidity 73    
Minimum Humidity 30    
Precipitation  
Precipitation 0.05 in 0.03 in 0.55 in (1970)
Month to date precipitation 0.05 0.12  
Year to date precipitation 22.82 19.77  
Sea Level Pressure  
Sea Level Pressure 29.93 in    
Wind  
Wind Speed 4 mph (WNW)    
Max Wind Speed 17 mph    
Max Gust Speed 24 mph    
Visibility 10 miles    
Events Rain , Thunderstorm    
T = Trace of Precipitation, MM = Missing Value Source: NWS Daily Summary

Daily Weather History Graph

Daily Weather History Graph

Search for Another Location

Airport or City:

Astronomy

Sep. 05, 2019 Rise Set
Actual Time 6:41 AM PDT 7:41 PM PDT
Civil Twilight 6:12 AM PDT 8:10 PM PDT
Nautical Twilight 5:38 AM PDT 8:45 PM PDT
Astronomical Twilight 5:01 AM PDT 9:21 PM PDT
Moon 2:06 PM PDT (9/5) 11:49 PM PDT (9/5)
Length of Visible Light 13h 57m
Length of Day
12h 59m
Waxing Crescent, 46% of the Moon is Illuminated
Sep 5
Waxing Crescent
Sep 5
First Quarter
Sep 13
Full
Sep 21
Last Quarter
Sep 28
New

Hourly Weather History & Observations

Time (PDT) Temp. Heat Index Dew Point Humidity Pressure Visibility Wind Dir Wind Speed Gust Speed Precip Events Conditions
12:53 AM 64.9 °F - 55.9 °F 73% 29.92 in 10.0 mi Calm Calm - N/A   Clear
1:53 AM 64.9 °F - 55.0 °F 70% 29.93 in 10.0 mi Calm Calm - N/A   Clear
2:53 AM 64.9 °F - 55.9 °F 73% 29.96 in 10.0 mi North 3.5 mph - N/A   Clear
3:53 AM 66.0 °F - 55.0 °F 68% 29.91 in 10.0 mi NNW 5.8 mph - 0.00 in   Clear
4:53 AM 64.0 °F - 55.9 °F 75% 29.91 in 10.0 mi Calm Calm - N/A   Clear
5:53 AM 64.9 °F - 55.9 °F 73% 29.93 in 10.0 mi NNE 5.8 mph - N/A   Clear
6:53 AM 64.0 °F - 55.9 °F 75% 29.92 in 10.0 mi SW 3.5 mph - N/A   Clear
7:53 AM 64.0 °F - 55.9 °F 75% 29.93 in 10.0 mi Calm Calm - N/A   Clear
8:53 AM 66.0 °F - 55.9 °F 70% 29.94 in 10.0 mi Calm Calm - N/A   Clear
9:53 AM 68.0 °F - 55.9 °F 65% 29.95 in 10.0 mi SSW 4.6 mph - N/A   Clear
10:53 AM 73.0 °F - 55.0 °F 53% 29.94 in 10.0 mi Calm Calm - N/A   Clear
11:53 AM 75.9 °F - 55.9 °F 50% 29.93 in 10.0 mi Calm Calm - 0.00 in   Partly Cloudy
12:53 PM 80.1 °F 80.2 °F 55.9 °F 43% 29.91 in 10.0 mi Calm Calm - N/A   Clear
1:53 PM 87.1 °F 85.9 °F 57.0 °F 36% 29.88 in 10.0 mi Calm Calm - N/A   Clear
2:53 PM 91.9 °F 90.3 °F 55.9 °F 30% 29.85 in 10.0 mi North 9.2 mph - N/A   Clear
3:53 PM 93.0 °F 92.0 °F 57.9 °F 31% 29.83 in 10.0 mi NW 11.5 mph 18.4 mph N/A   Clear
4:53 PM 87.1 °F 85.1 °F 54.0 °F 32% 29.86 in 10.0 mi WNW 11.5 mph 24.2 mph N/A   Clear
5:53 PM 84.9 °F 83.2 °F 53.1 °F 33% 29.91 in 10.0 mi NW 9.2 mph 17.3 mph N/A   Clear
6:53 PM 81.0 °F 80.7 °F 55.0 °F 41% 29.93 in 10.0 mi NNW 6.9 mph - 0.00 in   Scattered Clouds
7:53 PM 79.0 °F - 55.9 °F 45% 29.95 in 10.0 mi NNE 6.9 mph - N/A   Scattered Clouds
8:43 PM 75.9 °F - 57.0 °F 52% 29.99 in 10.0 mi SW 5.8 mph - N/A Thunderstorm Partly Cloudy
8:53 PM 75.9 °F - 57.0 °F 52% 29.99 in 10.0 mi SW 4.6 mph - N/A Thunderstorm Thunderstorm
9:29 PM 73.0 °F - 57.9 °F 59% 29.99 in 10.0 mi WNW 6.9 mph - N/A Thunderstorm Scattered Clouds
9:53 PM 73.0 °F - 59.0 °F 61% 30.01 in 10.0 mi SW 6.9 mph - 0.00 in Rain , Thunderstorm Light Thunderstorms and Rain
10:53 PM 66.9 °F - 62.1 °F 84% 30.01 in 10.0 mi Variable 5.8 mph - 0.05 in Rain Light Rain
11:53 PM 66.0 °F - 62.1 °F 87% 30.02 in 10.0 mi Calm Calm - 0.00 in   Partly Cloudy